"Pseudo-MPEC" for C5YJKJ2

Created 2021 Sep 15 10:07:06 UT using Find_Orb

Click here for an explanation of pseudo-MPECs

 
 Astrometry: 
     C5YJKJ2  C2021 09 13.27476723 57 51.64 -12 20 43.5    ~9D7M 20.94GVNEOCPG96
     C5YJKJ2  C2021 09 13.27958323 57 51.86 -12 20 09.7    ~9D7M 21.53GVNEOCPG96
     C5YJKJ2  C2021 09 13.28439023 57 52.12 -12 19 37.4    ~9D7M 21.15GVNEOCPG96
     C5YJKJ2  C2021 09 13.28917723 57 52.33 -12 19 03.8    ~9D7M 20.68GVNEOCPG96
     C5YJKJ2 mC2021 09 13.38518123 57 56.79 -12 07 56.4    ~9D9b 21.63GVNEOCPG96
     C5YJKJ2 mC2021 09 13.38594223 57 56.74 -12 07 50.4    ~9D9b 21.14GVNEOCPG96
     C5YJKJ2 mC2021 09 13.38670523 57 56.82 -12 07 45.2    ~9D9b 21.26GVNEOCPG96
     C5YJKJ2 KC2021 09 14.28854823 59 01.20 -10 24 09.3    ~9E7b 21.42GVNEOCPG96
     C5YJKJ2 KC2021 09 14.29006623 59 01.27 -10 23 58.1    ~9E7b 21.10GVNEOCPG96
     C5YJKJ2 KC2021 09 14.29158423 59 01.34 -10 23 48.9    ~9E7b 21.59GVNEOCPG96
     C5YJKJ2 |C2021 09 14cvJFAXPsQC`nAZu[JRrfZb,3/:LAstrometryCQu:KC:F!Ds,gZU807
     C5YJKJ2 |C2021 09 14.:Predacted;De\+=X7*gclickRVd]Q]w#l#[6wBXWwfKMheredj807
     C5YJKJ2 |C2021 09 140vM831%?gD?'TvaSBjPdHa;igiSWS4SZLAk,:XPqQ1%'r%[:oeYr807
     C5YJKJ2 |C2021 09 14'tforan=n%p(3*/TO;HbEs9VxuNW0B'OUyV*`$GT*r7=FK,;Mn:G807
     C5YJKJ2 |C2021 09 15-pyexplanation\x1Ft8vP7,ZQe[_ISP@0vEkr0+sqUM.S^T(v*X807
     C5YJKJ2 |C2021 09 153klVM#%[TEE*D;P%5jPk=^x!mww8dB*(x2_WGmVFRa(=f=apb$/a807
     C5YJKJ2 |C2021 09 15%gS@vdtv;,w/bCac*CZJ:Au#E*J,+9e5Pd=pXX!Au`dUdYv_6uiT807

Station data:
(807) Cerro Tololo Observatory, La Serena  (S30.169136 W70.805900)  Chile.
(G96) Mt. Lemmon Survey  (N32.442754 W110.788720)  US/Arizona.  Observers T.
   A. Pruyne, B. M. Africano, E. J. Christensen, G. A. Farneth, D. C. Fuls,
   A. R. Gibbs, A. D. Grauer, H. Gröller, J. A. Johnson, R. A. Kowalski, S.
   M. Larson, G. J. Leonard, D. Rankin, R. L. Seaman, F. C. Shelly. 1.5-m
   reflector + 10K CCD.

Orbital elements:  C5YJKJ2
   Perihelion 2021 Aug 30.741896 +/- 0.0430173 TT = 17:48:19 (JD 2459457.241896)
Epoch 2021 Sep 15.0 TT = JDT 2459472.5   Earth MOID: 0.1246   AutoNEOCP
M   4.12331255 +/- 0.0392765        (J2000 ecliptic)
n   0.27023754 +/- 0.00260129       Peri.  338.97853 +/- 0.0476443
a   2.36940292 +/- 0.0152045        Node   357.99225 +/- 0.0023803
e   0.5267628 +/- 0.00283528        Incl.    9.99957 +/- 0.0377389
P   3.65                   H 25.1   G  0.15   U  8.7  
q 1.12128949 +/- 0.000492136    Q 3.61751635 +/- 0.0301918
From 17 observations 2021 Sept. 13-15 (45.9 hr); mean residual 0".34
Residuals in arcseconds: 
210913 G96  .06+  .42+    210913 G96  .13-  .28-    210914 807  .02+  .07-    
210913 G96  .05-  .79+    210914 G96  .14-  .02+    210914 807  .08-  .07-    
210913 G96  .44+  .28-    210914 G96  .08-  .88+    210915 807  .03+  .08+    
210913 G96  .24+  .08+    210914 G96  .02-  .27-    210915 807  .18+  .13+    
210913 G96  .49+  .85-    210914 807  .01+  .11-    210915 807  .08+  .31-    
210913 G96  .77-  .16-    210914 807  .27-  .01+    

Ephemerides (geocentric):
Date (UTC) HH   RA              Dec         delta   r     elong  mag " sig PA
---- -- -- --  -------------   -----------  ------ ------ -----  --- ---- ---
2021 09 15 10  00 00 13.952   -08 16 35.03  .13211 1.1364 171.3 21.6 .147 178
2021 09 15 11  00 00 16.590   -08 11 57.82  .13218 1.1364 171.3 21.6 .153 178
2021 09 15 12  00 00 19.223   -08 07 20.89  .13225 1.1365 171.4 21.6 .158 179
2021 09 15 13  00 00 21.850   -08 02 44.25  .13233 1.1366 171.5 21.6 .164 179
2021 09 15 14  00 00 24.472   -07 58 07.90  .13240 1.1367 171.5 21.6 .169 179
2021 09 15 15  00 00 27.087   -07 53 31.84  .13248 1.1368 171.6 21.6 .175 179
2021 09 15 16  00 00 29.698   -07 48 56.07  .13255 1.1368 171.6 21.6 .180 179
2021 09 15 17  00 00 32.302   -07 44 20.59  .13263 1.1369 171.7 21.6 .185   0
2021 09 15 18  00 00 34.901   -07 39 45.40  .13271 1.1370 171.7 21.6 .190   0
2021 09 15 19  00 00 37.495   -07 35 10.51  .13278 1.1371 171.8 21.6 .196   0
2021 09 15 20  00 00 40.083   -07 30 35.91  .13286 1.1372 171.9 21.6 .201   0
2021 09 15 21  00 00 42.665   -07 26 01.60  .13294 1.1372 171.9 21.6 .206   0
2021 09 15 22  00 00 45.242   -07 21 27.60  .13301 1.1373 172.0 21.6 .211   0
2021 09 15 23  00 00 47.813   -07 16 53.89  .13309 1.1374 172.0 21.6 .216   1
2021 09 16 00  00 00 50.379   -07 12 20.48  .13317 1.1375 172.1 21.6 .221   1
2021 09 16 01  00 00 52.939   -07 07 47.37  .13325 1.1376 172.1 21.6 .226   1
2021 09 16 02  00 00 55.494   -07 03 14.57  .13333 1.1376 172.2 21.6 .231   1
2021 09 16 03  00 00 58.043   -06 58 42.07  .13341 1.1377 172.2 21.5 .236   1
2021 09 16 04  00 01 00.587   -06 54 09.87  .13349 1.1378 172.3 21.5 .241   1
2021 09 16 05  00 01 03.126   -06 49 37.98  .13357 1.1379 172.4 21.5 .246   1
2021 09 16 06  00 01 05.659   -06 45 06.39  .13365 1.1380 172.4 21.5 .251   1
2021 09 16 07  00 01 08.186   -06 40 35.11  .13373 1.1381 172.5 21.5 .256   2
2021 09 16 08  00 01 10.709   -06 36 04.14  .13381 1.1381 172.5 21.5 .260   2
2021 09 16 09  00 01 13.225   -06 31 33.48  .13389 1.1382 172.6 21.5 .265   2
2021 09 16 10  00 01 15.737   -06 27 03.13  .13397 1.1383 172.6 21.5 .270   2
2021 09 16 11  00 01 18.243   -06 22 33.09  .13405 1.1384 172.7 21.5 .275   2
2021 09 16 12  00 01 20.744   -06 18 03.36  .13414 1.1385 172.7 21.5 .279   2
2021 09 16 13  00 01 23.239   -06 13 33.95  .13422 1.1386 172.8 21.5 .284   2
2021 09 16 14  00 01 25.729   -06 09 04.86  .13430 1.1387 172.8 21.5 .288   2
2021 09 16 15  00 01 28.214   -06 04 36.08  .13439 1.1387 172.9 21.5 .293   2
2021 09 16 16  00 01 30.693   -06 00 07.61  .13447 1.1388 172.9 21.5 .298   3
2021 09 16 17  00 01 33.168   -05 55 39.47  .13455 1.1389 173.0 21.5 .302   3
2021 09 16 18  00 01 35.636   -05 51 11.64  .13464 1.1390 173.0 21.5 .307   3
2021 09 16 19  00 01 38.100   -05 46 44.13  .13472 1.1391 173.1 21.5 .311   3
2021 09 16 20  00 01 40.559   -05 42 16.95  .13481 1.1392 173.1 21.5 .315   3
2021 09 16 21  00 01 43.012   -05 37 50.09  .13489 1.1392 173.2 21.5 .320   3
2021 09 16 22  00 01 45.460   -05 33 23.55  .13498 1.1393 173.2 21.5 .324   3
2021 09 16 23  00 01 47.902   -05 28 57.33  .13507 1.1394 173.3 21.5 .329   3
2021 09 17 00  00 01 50.340   -05 24 31.44  .13515 1.1395 173.3 21.5 .333   3
2021 09 17 01  00 01 52.772   -05 20 05.88  .13524 1.1396 173.4 21.5 .337   3
2021 09 17 02  00 01 55.199   -05 15 40.64  .13533 1.1397 173.4 21.5 .342   3
2021 09 17 03  00 01 57.622   -05 11 15.73  .13541 1.1398 173.5 21.5 .346   4
2021 09 17 04  00 02 00.038   -05 06 51.15  .13550 1.1399 173.5 21.5 .350   4
2021 09 17 05  00 02 02.450   -05 02 26.89  .13559 1.1399 173.6 21.5 .354   4
2021 09 17 06  00 02 04.857   -04 58 02.97  .13568 1.1400 173.6 21.5 .359   4
2021 09 17 07  00 02 07.258   -04 53 39.39  .13577 1.1401 173.7 21.5 .363   4
2021 09 17 08  00 02 09.655   -04 49 16.13  .13586 1.1402 173.7 21.5 .367   4
2021 09 17 09  00 02 12.046   -04 44 53.21  .13595 1.1403 173.8 21.5 .371   4